Weather History for Amman, Jordan

Change the Weather History Date:

Thursday, February 7, 2013

  Actual Average Record
Temperature  
Mean Temperature 52 °F -  
Max Temperature 59 °F 56 °F 62 °F (2003)
Min Temperature 45 °F 41 °F 28 °F (1997)
Degree Days  
Heating Degree Days 13    
Growing Degree Days 2 (Base 50)    
Moisture  
Dew Point 41 °F    
Average Humidity 68    
Maximum Humidity 81    
Minimum Humidity 45    
Precipitation  
Precipitation 0.00 in 0.07 in - ()
Sea Level Pressure  
Sea Level Pressure 30.08 in    
Wind  
Wind Speed 4 mph ()    
Max Wind Speed 10 mph    
Max Gust Speed -    
Visibility 3.1 miles    
Events      
Averages and records for this station are not official NWS values.
T = Trace of Precipitation, MM = Missing Value Source: Averaged Metar Reports

Daily Weather History Graph

Daily Weather History Graph

Search for Another Location

Airport:

Trip Planner

Search our weather history database for the weather conditions in past years. The results will help you decide how hot, cold, wet, or windy it might be!

Date:

Astronomy

Feb. 07, 2013 Rise Set
Actual Time 7:25 AM EEST 6:15 PM EEST
Civil Twilight 6:59 AM EEST 6:40 PM EEST
Nautical Twilight 6:30 AM EEST 7:09 PM EEST
Astronomical Twilight 6:02 AM EEST 7:38 PM EEST
Moon 4:40 AM EEST (2/7) 3:21 PM EEST (2/7)
Length of Visible Light 11h 40m
Length of Day
10h 50m
Waning Crescent, 11% of the Moon is Illuminated
Feb 7
Waning Crescent
Feb 10
New
Feb 17
First Quarter
Feb 25
Full
Mar 5
Last Quarter

Hourly Weather History & Observations

Time (EEST) Temp. Windchill Dew Point Humidity Pressure Visibility Wind Dir Wind Speed Gust Speed Precip Events Conditions
12:00 AM 47 °F - 40 °F 69% 30.01 in 4 mi WSW 3.5 mph - -   Haze
12:00 AM 46.4 °F 45.2 °F 41.0 °F 81% 30.01 in 3.7 mi WSW 3.5 mph - N/A   Unknown
1:00 AM 46.4 °F 42.4 °F 41.0 °F 81% 30.01 in 3.7 mi SW 8.1 mph - N/A   Unknown
2:00 AM 46.4 °F 41.5 °F 41.0 °F 81% 30.01 in 3.7 mi WSW 10.4 mph - N/A   Unknown
3:00 AM 46.4 °F 44.3 °F 39.2 °F 76% 30.04 in 3.7 mi SSW 4.6 mph - N/A   Unknown
4:00 AM 46.4 °F 44.3 °F 39.2 °F 76% 30.04 in 3.7 mi SSW 4.6 mph - N/A   Unknown
5:00 AM 46.4 °F 44.3 °F 39.2 °F 76% 30.04 in 3.1 mi SSW 4.6 mph - N/A   Unknown
6:00 AM 46 °F - 40 °F 74% 30.04 in 3 mi SSW 4.6 mph - -   Haze
6:00 AM 46.4 °F 44.3 °F 41.0 °F 81% 30.04 in 3.1 mi SSW 4.6 mph - N/A   Haze
7:00 AM 46.4 °F 44.3 °F 39.2 °F 76% 30.04 in 2.5 mi SSW 4.6 mph - N/A   Haze
8:00 AM 46.4 °F 44.3 °F 41.0 °F 81% 30.06 in 1.9 mi SSW 4.6 mph - N/A   Haze
9:00 AM 48 °F - 40 °F 67% 30.09 in 2 mi South 6.9 mph - -   Haze
9:00 AM 48.2 °F - 41.0 °F 76% 30.09 in 2.5 mi South 6.9 mph - N/A   Haze
10:00 AM 50.0 °F - 41.0 °F 71% 30.09 in 3.1 mi SSE 3.5 mph - N/A   Haze
11:00 AM 51.8 °F - 42.8 °F 71% 30.12 in 1.9 mi SSW 6.9 mph - N/A   Haze
12:00 PM 53 °F - 42 °F 57% 30.13 in 3 mi SW 6.9 mph - -   Haze
12:00 PM 51.8 °F - 42.8 °F 71% 30.12 in 1.9 mi SW 6.9 mph - N/A   Haze
1:00 PM 55.4 °F - 41.0 °F 58% 30.09 in 3.1 mi Calm Calm - N/A   Haze
2:00 PM 57.2 °F - 41.0 °F 55% 30.12 in 3.1 mi Calm Calm - N/A   Haze
3:00 PM 58 °F - 42 °F 45% 30.08 in 3 mi Calm Calm - -   Haze
3:00 PM 59.0 °F - 42.8 °F 55% 30.09 in 3.1 mi Calm Calm - N/A   Haze
4:00 PM 57.2 °F - 41.0 °F 55% 30.09 in 3.1 mi ESE 5.8 mph - N/A   Haze
5:00 PM 55.4 °F - 41.0 °F 58% 30.09 in 3.1 mi Calm Calm - N/A   Haze
6:00 PM 55 °F - 41 °F 49% 30.10 in 3 mi Calm Calm - -   Haze
6:00 PM 55.4 °F - 41.0 °F 58% 30.09 in 3.1 mi Calm Calm - N/A   Haze
7:00 PM 53.6 °F - 41.0 °F 62% 30.09 in 3.1 mi ESE 4.6 mph - N/A   Haze
8:00 PM 51.8 °F - 41.0 °F 67% 30.12 in 3.1 mi Calm Calm - N/A   Haze
9:00 PM 50 °F - 42 °F 66% 30.12 in 4 mi Calm Calm - -   Haze
9:00 PM 50.0 °F - 42.8 °F 76% 30.12 in 3.7 mi Calm Calm - N/A   Unknown
10:00 PM 51.8 °F - 39.2 °F 62% 30.12 in 3.7 mi SSE 5.8 mph - N/A   Unknown
11:00 PM 50.0 °F - 39.2 °F 66% 30.12 in 3.7 mi ESE 4.6 mph - N/A   Unknown